COSMOS 2514 (751)

Last updated on Wed Jul 02 2025 00:03:16 GMT+0000 (Coordinated Universal Time)

1 41330U 16008A 25181.80913038 -.00000071 00000+0 00000+0 0 9992 2 41330 65.2259 325.0466 0011048 200.1139 159.8390 2.13102807 73131
UTC large
Height (km)
Speed (km/s)
/
Latitude / Longitude
Inclination (degrees)
Orbital Period (minutes)
Azimuth
Elevation
Range (km)
Doppler Factor

Next 0 passes for location: London (51.5072 / 0.1276)

Sorry there are no passes over London.